Tracking 21094 objects as of 12-Aug-2020
HD Live streaming from Space Station
objects crossing your sky now
Track the most recent launched group of Starlink satellites

SATCOM 3 DEB

Track SATCOM 3 DEB now!


NORAD ID: 29003
Int'l Code: 1979-101F
Perigee: 8,146.5 km
Apogee: 35,518.6 km
Inclination: 8.1 °
Period: 785.6 minutes
Semi major axis: 28203 km
RCS: 0.1589 m2 (medium)
Launch date: December 7, 1979
Source: United States (US)
Launch site: AIR FORCE EASTERN TEST RANGE (AFETR)

Note: This is SATELLITE DEBRIS
aabbcc
Your satellite tracking list
Your tracking list is empty




NASA's NSSDC Master Catalog

Two Line Element Set (TLE):
1 29003U 79101F   20224.69597418 -.00000056  00000-0  00000+0 0  9992
2 29003   8.0779 266.2842 4852586 127.1775 286.2522  1.83293386 97236
Source of the keplerian elements: AFSPC